Flag for Switzerland Weather past 2 weeks in Pully, Vaud, Switzerland

Now
46 °F

Cool.


Feels Like: 40 °F
Forecast: 31 / 46 °F
Wind: 13 mph from Northwest

Location: Aigle

Current Time: Mar 5, 2015 at 3:59:23 PM

Latest Report: Mar 5, 2015 at 3:00 PM


Visibility: N/A

Pressure: 30.47 "Hg

Humidity: 42%

Dew point: 24 °F

Location of PullyLocation

Historic Weather in Pully — Graph

°F

Pully temperature yesterday

Maximum temperature yesterday: 44 °F (at 3:00 PM)
Minimum temperature yesterday: 37 °F (at 8:00 PM)
Average temperature yesterday: 40 °F

Past Weeks' High & Low Weather Summary

 TemperatureHumidityPressure
High53 °F (Mar 2, 12:00 PM)99% (Feb 21, 9:00 PM)30.66 "Hg (Feb 21, 9:00 PM)
Low28 °F (Feb 19, 6:00 AM)35% (Feb 20, 11:00 AM)29.58 "Hg (Feb 21, 11:00 AM)
Average39 °F76%30.10 "Hg
* Reported Feb 18 2:00 PM — Mar 5 2:00 PM, Pully, Weather by CustomWeather, © 2015

Note: Actual official high and low records may vary slightly from our data, if they occured in-between our weather recording intervals... More about our weather records

Advertising

Pully weather history for previous 24 hours

 ConditionsComfort  
Time TempWeatherWind HumidityBarometerVisibility
2:00 PM
Thu, Mar 5
46 °FCool.12 mph35%30.48 "HgN/A
1:00 PM44 °FPassing clouds.12 mph39%30.50 "Hg25 mi
12:00 PM44 °FQuite cool.13 mph42%30.54 "HgN/A
11:00 AM44 °FQuite cool.13 mph48%30.52 "HgN/A
10:00 AM42 °FPassing clouds.8 mph46%30.54 "Hg25 mi
9:00 AM38 °FChilly.1 mph66%30.55 "HgN/A
8:00 AM33 °FChilly.3 mph83%30.54 "HgN/A
7:00 AM34 °FPassing clouds.3 mph73%30.52 "Hg25 mi
6:00 AM37 °FChilly.9 mph63%30.50 "HgN/A
5:00 AM38 °FChilly.9 mph63%30.49 "HgN/A
4:00 AM38 °FPassing clouds.12 mph60%30.49 "Hg28 mi
3:00 AM35 °FChilly.3 mph74%30.50 "HgN/A
2:00 AM38 °FChilly.8 mph67%30.49 "HgN/A
1:00 AM40 °FChilly.13 mph61%30.49 "HgN/A
12:00 AM40 °FChilly.7 mph60%30.47 "HgN/A
11:00 PM
Wed, Mar 4
39 °FChilly.8 mph59%30.47 "HgN/A
10:00 PM40 °FChilly.7 mph59%30.46 "HgN/A
9:00 PM39 °FChilly.10 mph65%30.44 "HgN/A
8:00 PM37 °FChilly.3 mph84%30.43 "HgN/A
7:00 PM38 °FPassing clouds.2 mph87%30.41 "Hg9 mi
6:00 PM39 °FChilly.5 mph79%30.39 "HgN/A
5:00 PM39 °FChilly.5 mph77%30.38 "HgN/A
4:00 PM37 °FOvercast.12 mph85%30.39 "Hg4 mi
3:00 PM44 °FQuite cool.7 mph57%30.34 "HgN/A
Weather by CustomWeather, © 2015

See weather overviewHow to use our weather pages